Theta_e
340 338 335 330 331 332 330 329 328 324 326 331 333 333 332 332 332 333 333 334 335 334 333 332 330 328 327 325 326 325 325 325 325
338 336 332 330 328 332 331 330 328 328 330 331 333 332 332 332 333 333 334 334 334 334 332 330 329 326 326 327 327 326 324 324 324
336 334 332 330 330 332 331 330 330 329 330 330 332 332 331 330 330 329 330 332 333 332 330 329 327 326 324 325 323 324 327 324 322
335 332 330 328 327 327 330 330 329 331 331 331 330 332 331 329 328 327 328 329 330 330 329 329 327 325 326 325 326 327 324 323 322
333 330 328 327 325 325 329 324 328 330 331 332 332 331 329 328 327 326 326 326 328 327 327 327 325 324 325 326 324 322 320 322 321
332 329 327 328 326 328 330 327 326 330 331 330 330 330 328 327 326 325 325 325 327 326 326 324 324 323 322 322 321 320 320 320 320
330 329 328 326 325 328 326 325 324 331 329 328 327 326 326 325 324 324 323 326 326 324 323 323 323 322 321 320 320 319 319 319 318
324 324 325 326 326 328 324 322 326 329 328 327 324 323 322 322 322 322 324 324 325 325 323 322 322 321 320 320 319 318 319 317 316
324 323 324 324 327 326 323 321 321 325 326 324 324 324 322 321 321 323 323 321 324 324 322 322 322 320 320 319 318 317 316 315 314
323 324 326 325 327 324 323 322 321 321 323 321 324 324 321 320 319 321 321 321 321 323 323 321 320 320 319 318 317 315 314 313 313
322 325 327 326 325 327 323 322 323 322 321 320 320 322 321 320 319 320 319 321 320 322 321 322 321 319 320 317 315 314 313 313 312
321 325 327 327 329 326 323 323 322 321 319 318 318 319 322 320 318 318 318 320 319 321 323 321 320 321 318 316 314 313 312 311 311
321 323 323 327 327 326 324 323 321 321 320 318 318 320 321 319 318 317 318 319 320 320 320 319 320 320 317 314 313 311 311 310 310
320 321 322 323 324 324 324 324 321 320 320 319 318 318 320 319 318 317 317 318 317 319 320 317 317 318 316 314 312 311 310 309 308
319 319 321 321 321 322 322 321 321 321 319 319 318 318 318 319 318 318 317 317 316 318 320 318 317 317 316 314 312 310 309 308 307
319 319 319 319 319 320 321 320 321 320 319 317 317 317 318 317 318 318 317 317 317 317 319 318 317 316 315 313 312 310 309 308 306
320 319 319 319 318 318 319 319 320 320 318 317 315 312 315 317 317 317 316 317 318 319 319 318 316 316 314 313 311 310 309 308 306
317 318 318 318 318 318 317 318 319 319 317 317 314 309 310 311 316 316 317 316 316 317 318 317 316 315 314 313 311 309 308 308 307
314 314 316 316 315 317 316 316 318 319 317 315 316 313 311 308 308 313 315 316 315 315 316 317 315 314 314 313 312 310 306 306 307
312 312 311 312 311 312 315 315 316 319 318 315 315 314 313 312 308 307 311 314 315 315 315 315 316 315 313 312 311 309 306 304 305
Wind_Speed
22 23 18 18 19 19 17 17 17 24 24 23 22 20 20 19 17 20 21 23 23 25 25 25 22 22 21 21 22 21 22 23 24
21 21 19 18 16 18 17 17 19 24 24 22 22 22 23 24 24 23 25 23 23 24 22 20 20 20 21 22 22 23 22 23 23
21 19 18 16 14 17 17 18 19 23 24 19 20 23 24 22 21 18 17 19 20 19 19 20 20 19 19 20 20 20 23 23 21
19 19 17 14 14 15 17 18 22 23 19 18 19 22 23 23 20 16 15 15 16 17 18 19 19 19 20 21 20 22 22 20 21
20 19 18 16 16 18 19 19 22 20 19 18 23 24 22 22 20 17 13 12 14 15 17 18 18 19 19 20 21 19 19 19 18
19 19 18 16 16 17 19 19 20 19 20 19 21 22 22 20 16 14 13 13 15 16 17 17 19 19 18 18 18 17 18 17 17
20 19 17 17 17 20 20 17 17 21 20 20 19 16 16 17 14 13 13 15 15 15 17 18 19 18 18 17 17 17 16 16 16
18 17 15 16 18 22 21 18 16 21 19 18 12 12 12 10 10 12 17 17 17 16 17 17 18 18 18 17 16 15 15 14 14
17 17 19 21 21 22 21 17 14 19 18 15 14 13 11 11 14 15 16 15 17 16 16 17 17 16 16 16 15 14 14 14 13
19 20 19 21 20 22 22 17 18 17 18 12 15 15 12 14 15 17 14 17 16 17 17 16 15 15 14 14 14 14 13 13 13
21 21 16 20 21 24 22 20 14 19 15 13 12 16 15 17 18 18 15 17 17 17 16 16 15 14 15 14 13 13 13 12 12
22 20 16 20 20 21 23 15 16 16 16 14 10 10 18 21 19 16 19 17 16 17 17 15 14 15 14 13 13 12 12 12 12
23 20 16 18 16 18 22 14 17 16 15 14 9 13 18 19 18 19 21 17 18 17 16 16 15 16 14 13 13 12 11 11 10
22 24 20 18 16 13 18 13 18 18 16 15 12 12 19 21 12 14 17 17 18 18 18 18 17 16 14 13 12 12 11 10 9
20 24 22 17 12 15 17 15 19 20 16 15 14 11 9 13 15 15 17 18 19 20 21 20 19 19 17 15 13 12 11 11 9
19 22 23 19 14 15 17 15 17 18 19 18 13 10 13 11 15 17 18 20 22 22 24 23 22 21 19 18 16 14 13 11 10
17 15 18 16 20 21 20 18 19 16 22 17 12 1 6 16 17 18 18 21 22 23 24 26 24 24 23 22 19 17 15 14 12
17 19 18 16 17 20 22 19 22 19 22 20 10 2 4 5 19 23 23 22 25 24 25 24 26 26 27 26 24 20 18 16 14
16 17 20 21 21 21 23 21 21 22 24 22 24 7 5 3 2 19 25 24 25 28 28 28 28 28 28 28 27 24 23 19 17
15 15 17 20 22 23 25 25 24 23 26 28 26 26 16 10 3 3 10 26 28 31 31 31 31 30 30 30 29 27 26 23 21
Wind_Direction
136 140 139 127 126 123 122 121 119 124 120 116 117 117 122 123 115 113 114 111 112 111 108 102 98 98 94 93 96 94 92 92 91
142 145 137 129 123 127 127 126 126 128 126 118 122 121 118 116 112 107 105 106 108 107 103 101 102 99 95 98 97 98 95 94 90
148 149 145 137 131 132 131 131 132 131 127 126 129 130 125 121 108 106 111 113 107 105 110 108 106 103 100 105 101 100 98 92 90
158 158 151 143 136 137 138 136 138 134 131 137 140 132 131 126 124 117 108 113 116 114 115 113 111 108 109 105 104 98 95 94 91
160 159 151 147 134 150 144 133 143 137 135 141 129 130 126 122 117 120 121 123 126 126 123 117 115 115 113 110 103 105 100 97 95
162 159 154 152 147 161 151 140 145 142 139 136 129 128 124 126 122 128 133 132 129 130 125 128 123 122 119 115 113 109 104 97 98
165 166 158 157 161 162 147 146 151 150 139 139 133 130 126 126 124 134 138 135 134 138 134 130 128 127 125 122 118 110 107 104 103
179 177 177 167 169 162 153 157 159 166 143 143 143 151 159 153 143 148 140 138 132 134 137 136 135 134 130 125 121 115 111 107 104
173 180 185 179 173 166 157 152 173 168 163 160 164 162 158 167 158 152 154 154 147 142 146 143 139 135 134 129 127 123 116 114 108
171 179 172 178 177 174 164 158 162 157 173 183 187 177 175 166 148 162 156 163 161 155 152 150 148 144 139 135 130 125 120 116 113
177 174 172 176 180 178 165 170 179 184 184 178 167 186 182 171 157 167 169 168 164 163 161 157 151 150 146 143 138 134 131 124 119
186 179 166 173 182 178 179 177 178 179 169 168 182 167 183 170 165 166 171 183 175 173 161 164 162 157 157 152 147 142 137 130 125
192 186 177 171 170 190 194 182 179 177 170 173 154 152 171 170 167 167 177 187 179 179 176 177 171 164 162 161 156 152 147 140 130
192 201 192 185 184 183 198 208 190 179 170 180 189 153 174 174 193 192 188 194 198 194 191 190 185 185 171 172 168 163 157 151 144
197 201 200 191 196 198 200 188 185 185 186 188 187 191 171 192 206 202 201 203 204 204 196 194 193 196 182 183 181 176 174 167 161
197 199 214 216 214 216 212 202 189 185 194 188 163 179 204 198 200 207 210 208 215 210 207 203 199 200 199 193 193 190 187 183 179
195 194 202 217 214 212 220 213 199 200 203 180 150 188 229 226 215 208 210 214 214 211 213 208 209 210 209 211 213 202 197 196 194
211 210 212 212 206 210 216 220 218 201 190 196 159 133 219 195 222 220 219 215 217 220 215 219 215 223 226 226 222 225 211 208 209
223 225 225 224 222 219 218 222 221 207 196 196 210 204 170 185 231 225 224 223 220 221 219 219 223 225 227 229 233 233 229 219 218
225 229 227 230 229 228 223 221 222 218 212 203 213 225 232 235 155 211 215 225 227 225 226 226 222 226 230 231 234 235 235 227 223